Regional Weather Roundup
Issued by NWS

Home | Current Version | Previous Version | Text Only | Print | Product List | Glossary Off
Versions: 1 2 3 4 5 6 7 8 9 10 11 12 13 14 15 16 17 18 19 20 21 22 23 24 25 26 27 28 29 30 31 32 33 34 35 36 37 38 39 40 41 42 43 44 45 46 47 48 49 50

000
ASUS43 KIND 191109
RWRIN

WEATHER ROUNDUP FOR INDIANA
NATIONAL WEATHER SERVICE INDIANAPOLIS IN
700 AM EDT TUE SEP 19 2017

NOTE: "FAIR" INDICATES FEW OR NO CLOUDS BELOW 12,000 FEET WITH NO
SIGNIFICANT WEATHER AND/OR OBSTRUCTIONS TO VISIBILITY.

* - STATION DOES NOT REPORT WEATHER SUCH AS PRECIPITATION OR FOG.

+ - STATION NOT QUALITY CONTROLLED BY THE NATIONAL WEATHER SERVICE.
    USE DATA WITH CAUTION...ESPECIALLY DEWPOINT AND RELATIVE
    HUMIDITY OBSERVATIONS.

INZ001>003-010>013-019-020-191200-
NORTHWEST INDIANA

CITY           SKY/WX    TMP DP  RH WIND       PRES   REMARKS
GARY /AIRPORT/ LGT RAIN  66  66 100 CALM      29.93S
KNOX *+        CLOUDY    64  64 100 E6        29.93S
LA PORTE +     RAIN      65  64  98 E5        29.94S
MICHIGAN CITY+ RAIN      64  64 100 CALM      29.95R
MONTICELLO +   LGT RAIN  66  64  96 S3        29.92F
RENSSELAER +   CLOUDY    63  59  88 CALM      29.93S FOG
VALPARAISO     LGT RAIN  67  66  97 NE6       29.93S

$$

LMZ046-743>745-191200-
SOUTHERN LAKE MICHIGAN

STATION/POSITION TIME  TEMP    WIND        PRES    WAVE
                       AIR SEA DIR/SP/G            HT
                 (UTC) (F)     (DEG/KT/KT) (MB)    (FT)
BURNS HARBOR     1040   66      90/  7/  9 1013.9R
MICHIGAN CITY    1040   66     120/  7/  8   N/A
5NW MICH CITY    1100   66 68  110/  8/ 10   N/A     2

$$

INZ004-005-014>016-021>024-191200-
NORTH CENTRAL INDIANA

CITY           SKY/WX    TMP DP  RH WIND       PRES   REMARKS
ELKHART        TSTM      66  66 100 N3        29.96
GOSHEN         HVY RAIN  66  63  90 E6        29.97S FOG
LOGANSPORT +   RAIN      64  64 100 SE3       29.94S
PERU/GRISSOM   CLOUDY    67  67 100 S5        29.93S
SOUTH BEND     LGT RAIN  64  64 100 E8        29.97S FOG
WARSAW +       RAIN      64  64 100 CALM      29.96F

$$

INZ006>009-017-018-025>027-191200-
NORTHEAST INDIANA

CITY           SKY/WX    TMP DP  RH WIND       PRES   REMARKS
AUBURN +       FOG       66  64  94 E6        29.97R VSB 3/4
FORT WAYNE     HVY RAIN  68  66  93 SW9       29.96S FOG
HUNTINGTON +   RAIN      67  66  96 SW3       29.96R
KENDALLVILLE + HVY RAIN  65  65 100 NE5       29.98R VSB 3/4

$$

INZ028-029-035-036-043>045-051>053-191200-
WEST CENTRAL INDIANA

CITY           SKY/WX    TMP DP  RH WIND       PRES   REMARKS
GREENCASTLE +  CLOUDY    66  66 100 CALM      29.95R FOG
LAFAYETTE      LGT RAIN  66  66 100 CALM      29.92F
TERRE HAUTE    LGT RAIN  69  68  96 S6        29.94S FOG

$$

INZ030>032-037>040-046>048-054>057-064-065-191200-
CENTRAL INDIANA

CITY           SKY/WX    TMP DP  RH WIND       PRES   REMARKS
CP ATTERBURY + CLOUDY    66  64  94 S3        29.95F FOG
COLUMBUS       PTCLDY    66  66 100 CALM      29.95  FOG
FRANKFORT +    CLOUDY    71  70  96 CALM      29.96S FOG
GREENWOOD *+   CLOUDY    71  69  93 CALM      29.96S
INDIANAPOLIS   LGT RAIN  68  67  96 SW3       29.94F
-EAGLE CREEK   LGT RAIN  69  66  90 CALM      29.94F
KOKOMO +       CLOUDY    68  67  96 S5        29.95S
MT COMFORT *+    N/A    N/A N/A N/A MISG        N/A
SHELBYVILLE    PTCLDY    70  66  87 CALM      29.95S
ZIONSVILLE +   LGT RAIN  66  66  99 SE3       29.96S

$$

INZ033-034-041-042-049-050-058-059-191200-
EAST CENTRAL INDIANA

CITY           SKY/WX    TMP DP  RH WIND       PRES   REMARKS
MUNCIE         TSTM      70  67  90 W3        29.97R VSB 3/4
RICHMOND +     CLOUDY    64  64 100 CALM      29.98S FOG

$$

INZ060-061-067>069-081>083-085>088-191200-
SOUTHWEST INDIANA

CITY           SKY/WX    TMP DP  RH WIND       PRES   REMARKS
EVANSVILLE     CLOUDY    69  67  93 NE5       29.95R
HUNTINGBURG +    N/A    N/A N/A N/A MISG        N/A
WASHINGTON +   TSTM      68  66  93 CALM      29.96R

$$

INZ062-063-066-070>080-084-089>092-191200-
SOUTH CENTRAL AND SOUTHEAST INDIANA

CITY           SKY/WX    TMP DP  RH WIND       PRES   REMARKS
BLOOMINGTON    CLOUDY    68  65  90 CALM      29.95S FOG
MADISON *+     MOCLDY    68  66  94 CALM      29.98S
NORTH VERNON + CLOUDY    66  64  94 CALM      29.97R FOG
SEYMOUR +      CLOUDY    68  68 100 CALM      29.96S FOG

$$




USA.gov is the U.S. government's official web portal to all federal, state and local government web resources and services.